This is the latest recevied weather packets stored in our database for station/object KI4FRU. If no packets are shown the sender has not sent any weather packets the latest 10 day(s).
| Time | Temp. | Humidity | Pressure | Rain* | Wind** | Luminosity | Snow |
|---|---|---|---|---|---|---|---|
| 1778073538 | 17.78° C | 93% | 1052.4 hPa | 0 mm | - | 32 W/m² | - |
| 1778073233 | 17.78° C | 93% | 1052.7 hPa | 0 mm | - | 37 W/m² | - |
| 1778072931 | 17.78° C | 93% | 1052.5 hPa | 0 mm | - | 36 W/m² | - |
| 1778072627 | 17.78° C | 93% | 1052.6 hPa | 0 mm | - | 30 W/m² | - |
| 1778072325 | 17.78° C | 94% | 1052.6 hPa | 0 mm | - | 27 W/m² | - |
| 1778072023 | 17.78° C | 93% | 1052.5 hPa | 0 mm | - | 29 W/m² | - |
| 1778071721 | 17.78° C | 94% | 1052.3 hPa | 0 mm | - | 32 W/m² | - |
| 1778071418 | 17.22° C | 94% | 1052.3 hPa | 0 mm | - | 48 W/m² | - |
| 1778071116 | 17.22° C | 93% | 1052.3 hPa | 0 mm | - | 32 W/m² | - |
| 1778070814 | 17.22° C | 94% | 1052 hPa | 0 mm | - | 29 W/m² | - |
| 1778070511 | 17.22° C | 94% | 1052.3 hPa | 0 mm | - | 36 W/m² | - |
| 1778070207 | 17.22° C | 95% | 1052.1 hPa | 0 mm | - | 34 W/m² | - |
| 1778069906 | 16.67° C | 94% | 1052.4 hPa | 0 mm | - | 39 W/m² | - |
| 1778069603 | 16.67° C | 95% | 1052.5 hPa | 0 mm | - | 34 W/m² | - |
| 1778069300 | 16.67° C | 95% | 1052.4 hPa | 0 mm | - | 24 W/m² | - |
| 1778068998 | 16.67° C | 95% | 1052.6 hPa | 0 mm | - | 19 W/m² | - |
| 1778068695 | 16.67° C | 96% | 1052.9 hPa | 0 mm | - | 22 W/m² | - |
| 1778068393 | 16.11° C | 96% | 1053 hPa | 0 mm | - | 16 W/m² | - |
| 1778068090 | 16.11° C | 96% | 1052.9 hPa | 0 mm | - | 17 W/m² | - |
| 1778067788 | 16.67° C | 96% | 1052.9 hPa | 0 mm | - | 15 W/m² | - |
| 1778067486 | 16.67° C | 96% | 1053 hPa | 0 mm | - | 11 W/m² | - |
| 1778067183 | 16.11° C | 96% | 1052.5 hPa | 0 mm | - | 13 W/m² | - |
| 1778066880 | 16.11° C | 96% | 1052.6 hPa | 0 mm | - | 18 W/m² | - |
| 1778066577 | 16.11° C | 96% | 1052.7 hPa | 0 mm | - | 19 W/m² | - |
| 1778066275 | 16.11° C | 97% | 1052.3 hPa | 0 mm | - | 16 W/m² | - |
* Rain latest hour (hover to see other rain measurements)
** Current wind speed in m/s (hover to see current wind gust speed)